Погода в Болниси

Погода в Болниси : погода сейчас, прогноз погоды и архив. Всё, что Вы хотите узнать о погоде в Болниси!

Поиск расширенной информации на нашем сайте:

Другие новости

Новости СМИ2

Главная страница сайта

Новости сайта

03.07.2017

Напоминаем, что на нашем специализированном сайте Метеоцентр.Азия вы можете получить высокодетализированные автоматические прогнозы погоды по пунктам России, СНГ и мира в авиационном формате (включающие направление и скорость ветра, видимость, явления погоды, количество и форму облачности, нижнюю и верхнюю границу облачности).

Рекомендуем: Свадьба на Бали и других островах

Погода в Болниси - сегодня

Время (UTC), дата Ветер
(°,м/с) 
Видим.   Явления Облачность Т
(°С)
Тd
(°С)
f(%) Тe
(°С)
Pmin
(гПа)
dP
(гПа)
Po
(мм)
O2
(г/м3)
Тmin Tmax R s Состояние
почвы
21 23.07.17 тихо ()   н/о    3/0 средняя 
[Ac trans]
+22.2 +15.5 66 +33  1008.2  0.2  711  262           
00 24.07.17 тихо ()   н/о    ясно 
+20.9 +15.3 70 +32  1008.5  711  263           
03 24.07.17 тихо ()   20000 м    9/0 1000 м средняя 
[Ac trans]
+19.7 +14.6 72 +29  1008.7  -0.1  711  264           
06 24.07.17 тихо ()   20000 м    3/3 1000 м 
[Cu med, cong]
+28.1 +17.7 53 +44  1006.9  0.1  711  256  +19.7         
09 24.07.17 180 (Ю) 20000 м    8/8 1000 м 
[Cu med, cong]
+31.1 +18.7 48 +49  1005.5  -0.8  711  253           
12 24.07.17 140 (ЮВ) 20000 м    8/8 1000 м 
[Sc]
+31.7 +18.7 46 +49  1004.9  -0.5  710  252           
15 24.07.17 090 (В) 20000 м    9/9 1000 м 
[Sc]
+29.7 +16.7 46 +43  1004.6  -0.7  710  254    +32.6       
18 24.07.17 270 (З) н/о  в посл. час гроза  10/10 600 м кучево-дожд. 
[Cb cap]
+21.9 +16.4 71 +35  1007.9  1.6  711  262    +32.6       
21 24.07.17 270 (З) н/о    9/9 1000 м кучево-дожд. 
[Cb cap]
+21.1 +17.7 81 +37  1008.2  0.2  711  262           
00 25.07.17 тихо ()   н/о    10/10 600 м 
[Sc]
+21.1 +17.7 81 +37  1008.1  -0.1  711  262           
03 25.07.17 тихо ()   20000 м    10/10 600 м 
[Sc]
+20.9 +18.4 86 +38  1008.7  0.5  711  262      0.7     
06 25.07.17 360 (С) 20000 м    9/9 1000 м 
[Sc]
+23.5 +18.8 75 +41  1007.7  -0.3  711  259  +20.6    0.7     
09 25.07.17 140 (ЮВ) 20000 м    9/9 1000 м 
[Sc]
+26.9 +16.4 53 +40  1006.3  -0.8  711  257           
12 25.07.17 140 (ЮВ) 20000 м    6/4 1000 м средняя 
[Cu med, cong|Ac trans]
+28.1 +17.4 52 +43  1004.5  -1.4  710  255           
15 25.07.17 320 (СЗ) 20000 м    9/9 1000 м 
[Sc]
+26.3 +17.2 57 +41  1004.4  -0.5  709  257    +30.1       
18 25.07.17 270 (З) н/о    4/0 1000 м средняя 
[Ac trans]
+23.5 +16.9 66 +37  1005.6  0.6  710  259    +30.1       
21 25.07.17 270 (З) н/о    ясно 
+21.5 +15.5 69 +33  1006.8  0.7  710  262           
00 26.07.17 270 (З) н/о    ясно 
+20.1 +15.4 74 +31  1006.8  -0.3  710  263           
03 26.07.17 320 (СЗ) 20000 м    6/0 1000 м средняя 
[Ac trans]
+20.9 +14.4 66 +30  1007  0.3  710  263           
06 26.07.17 270 (З) 20000 м    3/0 1000 м средняя 
[Ac trans]
+28.6 +17.7 52 +44  1004.9  -0.4  710  255  +20         
09 26.07.17 110 (В) 20000 м    1/1 1000 м 
[Cu med, cong]
+31.7 +17.5 43 +47  1003.6  -0.6  709  252           
12 26.07.17 110 (В) 20000 м    4/1 1000 м средняя 
[Cu med, cong|Ac trans]
+33.5 +16.7 37 +47  1002.2  -1.1  709  251           
15 26.07.17 090 (В) 20000 м    5/1 1000 м средняя 
[Cu med, cong|Ac trans]
+32.5 +14.9 35 +43  1002.2  -0.2  708  252    +34.3       
18 26.07.17 270 (З) н/о    ясно 
+26 +14.9 50 +36  1005.7  2.1  710  258    +34.3       
21 26.07.17 270 (З) н/о    ясно 
+24.5 +15.6 58 +36  1006.7  0.7  710  259           
Время (UTC), дата Ветер
(°,м/с) 
Видим.   Явления Облачность Т
(°С)
Тd
(°С)
f(%) Тe
(°С)
Pmin
(гПа)
dP
(гПа)
Po
(мм)
O2
(г/м3)
Тmin Tmax R s Состояние
почвы

Для получения пояснительной информации подведите курсор к названию столбца.

ПОГОДА в Болниси - архив

Всё, что Вы хотите узнать о погоде в Болниси - удобно и подробно!

Выберите нужную дату (начиная с 1 января 2015* года) и нажмите кнопку "Найти".
Будут отображены архивные сводки погоды по пункту Болниси, начиная с указанной даты.


Отображать данные в формате CSV (для использования в таблицах Excel)


Внимание! Наш архив погоды предназначен исключительно для личного некоммерческого использования в познавательных целях. Если Вам необходимы официальные справки о состоянии погоды (для производственных, юридических, коммерческих и т.п. целей), обращайтесь в органы Росгидромета.

*Примечание: данная дата относится к архиву по метеостанциям СССР (Россия, СНГ, Балтия).
Архив по метеостанциям Зарубежной Европы и Азии (кроме Китая) хранится 10 дней, по другим регионам земного шара (Китай, Африка, Америка, Австралия, Океания) - 1 день.

Болниси - район местоположения метеостанции


Название, широта, долгота, высота метеостанции:
Болниси 41.4°ш. 44.6°д. 534 м над ур. моря [Грузия]

Дополнительная информация

В oтличие oт бoльшинства пoгoдных сайтoв мы публикуем пoдрoбную метеoинфoрмацию в детальнoм прoфессиoнальнoм фoрмате.

Характеристики температуры и влажнoсти вoздуха измеряются на высoте 2 м в тени вдали oт зданий и деревьев.
Скoрoсть ветра измеряется на высoте 10 м (на урoвне рoста челoвека скoрoсть ветра ниже в 1.5-2 раза). Если метеoстанция нахoдится в гoрoде или в лесу, тo скoрoсть ветра занижена на 2-4 м/с пo сравнению с oткрытым местoм. Скoрoсть ветра над акватoриями крупных рек и oзёр, а также на вершинах хoлмoв на 2-5 м/с выше, чем в oбычных услoвиях.
Атмoсфернoе давление в разных тoчках местнoсти мoжет значительнo oтличаться oт давления на метеoстанции, в зависимoсти oт услoвий рельефа (при пoдъёме на 10 м давление пoнижается примернo на 1 мм рт.ст.).